SCP
0 0 0 0 0 0 0 0 0 0 0 1 1 1 1 1 1 1 1 1 1 1 1 1 0 0 1 1 1 1 1 1 1 1 1 1 1 1 1 1 1 1 1 1
0 0 0 0 0 0 0 0 0 0 0 1 1 1 1 1 1 1 1 1 2 2 1 1 1 1 1 2 2 2 1 1 1 1 1 1 1 1 1 1 1 1 1 1
0 0 0 0 0 0 0 0 0 0 1 1 1 1 1 1 1 1 1 1 2 2 1 1 2 2 3 3 2 2 1 1 1 1 1 1 1 1 1 1 1 1 1 1
0 0 0 0 0 0 0 0 0 0 0 0 0 0 0 0 1 1 1 2 2 2 2 2 3 4 4 3 2 1 1 1 1 1 1 1 1 1 1 1 1 1 1 1
0 0 0 0 0 0 0 0 0 0 0 0 0 0 0 0 1 1 1 1 1 1 2 3 4 4 3 3 2 1 1 1 1 1 1 1 1 1 1 1 1 1 1 1
0 0 0 0 0 0 0 0 0 0 0 0 0 0 0 0 0 0 1 1 1 1 2 3 3 3 3 3 2 1 1 1 1 1 2 2 2 1 2 2 2 1 1 1
0 0 0 0 0 0 0 0 0 0 0 0 0 0 0 0 1 1 1 1 1 1 2 3 3 3 3 3 2 1 1 1 1 2 2 2 2 2 2 2 3 2 2 2
0 0 0 0 0 0 0 0 0 0 0 0 0 0 0 0 1 1 2 1 1 1 2 3 3 2 2 2 2 1 1 2 2 2 2 3 3 4 3 3 3 4 3 2
0 0 0 0 0 0 0 0 0 0 0 0 0 0 0 1 1 2 2 2 1 2 2 2 2 2 2 2 1 1 1 2 2 3 3 4 4 5 4 4 5 4 3 2
0 0 0 0 0 0 0 0 0 0 0 0 0 0 1 1 1 2 2 1 1 2 2 2 2 2 2 2 2 2 1 2 2 3 3 4 4 5 5 5 5 4 2 1
0 0 0 0 0 0 0 0 0 0 0 0 0 0 1 1 1 1 1 1 2 3 4 4 3 3 2 2 2 2 2 2 2 2 3 4 4 4 4 3 3 2 1 1
0 0 0 0 0 0 0 0 0 0 0 0 0 0 0 1 1 1 2 2 3 4 5 5 4 3 3 3 3 3 3 3 2 3 3 4 4 3 3 2 2 2 2 1
0 0 0 0 0 0 0 0 0 0 0 0 0 0 0 1 2 2 3 3 4 4 5 5 4 4 3 3 3 3 3 3 3 3 4 4 4 3 3 2 2 2 2 2
0 0 0 0 0 0 0 0 0 0 0 0 0 0 0 1 2 3 3 3 4 4 4 4 4 4 4 4 4 4 3 3 4 5 5 6 6 5 4 3 3 3 2 2
0 0 0 0 0 0 0 0 0 0 0 0 0 0 0 1 2 3 3 3 3 3 3 3 4 4 4 4 4 4 4 4 5 6 7 8 8 7 5 4 3 3 3 2
0 0 0 0 0 0 1 0 0 0 0 0 0 0 0 1 2 2 3 3 3 3 3 4 4 5 5 4 4 3 3 4 5 6 7 8 8 7 6 4 4 4 4 3
0 0 0 0 0 0 0 0 0 0 0 0 0 0 1 1 1 2 2 3 3 3 3 4 4 4 4 4 3 2 3 3 4 5 6 8 8 7 6 5 4 4 4 4
0 0 0 0 0 0 0 0 0 0 0 0 0 0 1 2 2 2 2 3 3 3 4 4 4 4 3 3 2 2 2 2 3 5 6 8 8 7 5 5 5 5 4 4
0 0 0 0 0 0 0 0 0 0 0 0 0 1 2 4 4 4 3 3 4 4 4 3 3 3 2 2 2 2 2 3 4 5 7 8 8 7 6 5 5 5 5 5
0 0 0 0 0 0 0 0 0 0 0 0 1 2 3 4 5 4 4 4 4 4 4 3 2 2 2 2 2 2 3 4 5 7 8 8 8 8 7 6 5 5 6 6
0 0 0 1 1 0 0 0 0 0 0 1 1 3 4 4 5 5 5 5 4 3 3 2 2 2 2 2 2 2 3 5 6 8 9 9 9 9 8 7 5 5 6 6
0 0 0 1 1 0 0 0 0 0 1 1 2 4 6 6 6 5 5 4 3 3 2 2 2 2 3 3 3 3 3 5 7 9 9 9 8 8 7 6 6 6 6 6
0 0 0 0 0 0 0 0 0 1 1 2 3 6 7 7 6 5 4 3 2 2 1 1 2 3 3 4 4 4 4 5 7 8 9 9 8 7 7 6 6 6 6 6
0 0 0 0 0 0 0 0 1 1 2 3 5 6 7 6 5 4 3 3 2 2 1 2 2 3 3 4 5 5 5 5 6 8 9 9 9 8 8 7 7 7 7 6
0 0 0 0 0 0 1 1 2 3 4 5 5 5 5 4 3 3 2 2 2 2 2 2 2 2 3 3 4 4 4 5 6 7 8 10 10 9 9 8 8 7 6 4
0 0 1 1 0 0 1 1 3 4 5 5 5 4 3 2 2 2 2 2 2 2 2 2 2 2 3 3 4 4 4 5 6 7 8 9 10 9 9 9 8 6 4 3
Wind_Speed
2 4 2 6 6 5 3 2 3 5 3 3 4 3 3 6 7 8 7 7 7 8 6 4 5 6 5 5 5 5 5 4 3 2 2 2 2 1 1 2 2 2 2 2
4 2 6 4 3 3 2 2 4 4 1 3 2 2 2 5 8 8 9 9 8 6 4 5 5 6 7 7 6 5 5 5 4 3 3 2 2 1 2 1 1 2 2 2
5 5 2 3 2 2 3 5 5 3 2 3 2 3 2 2 3 4 5 6 7 9 8 7 7 7 7 8 8 7 6 6 5 4 2 2 2 1 0 0 1 1 2 2
4 4 2 2 3 4 4 5 5 3 2 1 1 2 5 3 3 5 6 6 7 7 7 7 8 8 8 9 7 6 6 6 5 5 4 4 4 3 3 1 1 1 1 1
5 3 3 3 5 5 5 1 3 2 3 2 2 1 7 1 4 7 7 8 8 8 8 9 9 9 8 7 6 5 5 5 5 5 5 4 3 3 2 1 1 1 1 1
5 3 4 5 2 4 3 6 6 5 5 1 2 2 6 4 6 5 6 7 7 7 8 7 6 6 5 5 5 5 5 4 4 5 5 5 5 4 3 2 2 1 1 1
4 3 2 2 2 2 4 6 4 5 4 4 1 2 8 6 4 5 5 5 5 5 6 6 7 7 6 7 7 6 6 6 5 5 5 5 6 5 5 4 4 3 2 1
2 5 3 2 5 5 3 8 7 5 4 4 1 4 7 4 3 2 2 3 2 3 3 5 6 7 6 7 7 7 7 7 6 6 6 5 5 4 4 4 4 4 3 2
6 6 3 1 2 7 5 3 5 7 3 1 4 5 8 3 3 1 0 1 1 2 3 4 4 4 5 5 6 7 8 7 7 8 6 5 5 5 5 4 4 3 3 3
8 4 4 2 4 4 5 8 5 6 6 3 4 4 5 5 4 2 1 1 1 1 1 2 3 3 4 5 5 4 6 7 7 7 7 6 5 5 5 4 4 4 4 3
5 5 3 2 2 3 3 4 5 5 4 6 3 7 5 6 5 4 3 3 3 2 1 2 2 3 3 3 4 4 4 4 5 6 6 5 5 5 5 5 5 4 4 4
3 6 2 4 3 2 4 6 7 6 4 4 4 8 4 4 4 3 3 2 1 1 1 1 1 2 2 2 3 3 3 4 4 5 5 5 4 4 4 4 4 4 4 3
5 6 2 5 4 2 1 2 4 6 6 5 4 8 2 1 1 1 2 1 1 1 1 2 2 1 1 2 2 2 2 3 3 3 4 4 4 4 4 3 3 3 3 3
6 5 7 9 8 4 2 2 4 6 5 5 7 7 5 3 2 2 2 2 2 2 1 1 1 0 0 1 1 1 1 2 2 3 3 3 4 4 4 3 3 3 3 3
5 4 4 4 3 3 4 4 6 5 8 8 8 7 9 7 6 5 4 3 2 2 1 1 1 1 1 1 0 1 1 1 1 2 3 4 4 3 3 4 4 4 4 3
3 4 2 1 1 2 2 4 6 6 5 5 3 7 7 3 2 3 4 4 4 3 3 2 1 1 1 1 1 1 1 1 2 2 2 2 2 3 3 4 4 4 4 3
1 5 4 3 2 2 4 7 7 5 5 7 8 8 2 3 6 7 7 7 6 5 4 4 3 3 3 2 2 2 1 1 1 1 1 1 2 2 3 3 4 4 4 4
5 4 4 2 2 5 9 4 5 5 4 5 4 4 5 6 5 4 5 7 6 5 5 4 3 3 2 2 1 1 2 2 2 1 1 1 1 2 2 2 3 3 3 3
5 7 5 4 4 5 6 2 3 5 4 3 4 3 2 2 3 2 4 5 6 6 5 4 4 3 2 2 2 3 2 2 2 1 1 1 2 2 2 3 3 2 3 3
4 4 5 4 4 6 7 4 1 4 3 3 2 3 2 4 2 5 4 4 3 3 3 3 2 2 2 2 3 3 2 2 2 2 2 2 2 3 3 4 3 2 2 3
3 3 3 4 4 6 5 3 3 4 7 4 3 4 5 6 6 4 3 2 3 3 3 3 3 3 2 3 4 3 2 2 3 2 1 1 2 2 3 2 2 2 2 2
4 4 4 4 3 6 3 2 4 5 4 2 3 4 5 4 1 1 2 3 3 3 3 4 4 2 1 3 4 3 3 3 1 1 1 1 1 1 1 2 2 2 3 3
4 5 5 7 6 5 2 2 3 2 2 3 3 3 3 3 2 1 2 3 3 4 4 3 4 2 1 2 3 4 3 2 1 1 1 1 1 1 1 2 2 2 2 2
2 2 2 2 4 4 3 3 3 2 2 3 2 2 3 3 3 2 3 3 3 2 3 3 4 3 2 2 2 3 2 2 2 2 1 1 1 1 1 1 1 1 2 2
4 2 2 2 4 4 4 3 3 4 3 3 3 1 1 3 3 3 3 3 3 2 2 3 4 4 3 2 2 2 2 2 2 2 2 1 1 1 1 1 1 2 2 3
4 5 4 5 5 3 5 4 3 3 3 3 3 3 2 1 3 3 3 3 3 3 2 2 3 3 2 2 2 2 2 3 3 1 1 1 1 1 1 1 1 2 1 1
Wind_Direction
49 79 191 209 192 192 187 200 258 261 219 167 204 236 221 178 185 196 201 205 206 212 212 199 192 187 184 184 188 192 187 180 161 162 172 181 208 210 205 206 203 200 194 174
37 273 233 188 172 166 182 238 268 289 181 161 196 263 242 187 200 200 200 205 208 210 203 201 199 194 190 189 195 193 191 180 181 189 180 177 171 185 198 213 192 193 191 185
192 238 210 168 184 185 220 197 225 233 23 56 91 331 279 233 218 212 211 206 206 206 204 203 199 200 193 194 196 199 194 188 192 186 153 133 102 72 85 207 214 210 192 193
226 250 198 201 219 177 255 219 196 179 115 326 92 279 288 250 238 229 225 215 211 208 203 203 199 197 201 203 195 196 192 189 187 174 172 176 179 188 202 193 204 233 198 200
232 208 191 228 228 177 220 133 129 122 121 61 23 152 289 315 249 246 231 224 218 207 203 205 202 200 199 194 185 184 178 182 180 175 177 179 185 185 175 164 183 219 228 212
240 230 202 215 228 160 146 71 59 52 73 41 255 165 279 247 232 246 229 222 216 206 204 204 199 190 187 179 173 173 171 188 183 177 181 180 182 179 171 179 191 214 222 216
305 295 254 163 72 42 93 90 39 8 16 255 264 193 250 255 246 232 226 219 211 199 196 193 186 185 187 183 181 180 178 194 191 183 189 191 190 185 191 194 196 200 203 213
200 277 252 185 173 178 166 139 156 187 215 266 322 231 254 276 281 260 222 202 182 180 183 191 193 188 189 190 186 185 190 198 193 192 198 198 195 193 201 199 196 199 203 205
182 247 289 241 180 142 135 150 157 131 140 229 276 284 301 318 333 345 68 108 173 190 183 183 182 182 186 190 198 198 197 199 199 199 199 202 199 197 201 197 194 196 201 197
162 218 286 299 61 41 127 140 103 120 145 225 281 275 264 281 280 284 215 186 197 187 174 166 168 176 186 190 197 202 202 204 202 198 202 204 203 203 198 188 192 196 199 197
144 163 297 33 127 179 97 95 104 112 147 157 226 265 232 226 231 224 210 195 187 184 178 179 169 179 177 172 176 191 198 200 202 203 203 202 203 202 197 196 201 200 199 195
148 130 206 258 260 198 156 158 145 149 198 169 175 260 269 221 225 209 202 183 175 185 187 155 110 98 119 153 173 192 203 202 206 200 195 200 202 198 202 209 210 197 196 196
132 118 96 337 333 6 101 141 136 123 117 149 174 260 316 360 275 222 196 180 155 120 72 64 64 79 118 143 166 193 206 210 207 188 189 195 199 197 200 208 206 194 196 203
120 124 167 199 217 198 208 195 153 127 144 187 216 244 283 276 248 239 213 192 156 136 122 111 98 336 100 122 151 159 191 199 196 184 185 195 205 204 201 190 189 196 201 208
112 150 202 226 218 175 199 204 183 179 184 184 219 224 246 230 217 209 195 176 152 152 164 187 203 251 312 29 80 135 155 159 164 167 182 201 202 202 197 192 191 188 191 209
88 145 163 262 230 186 222 229 200 206 194 202 212 250 246 226 179 180 185 180 188 200 209 220 221 225 228 198 193 184 193 157 133 150 187 186 174 186 198 202 193 184 182 188
117 131 130 229 286 72 256 229 200 200 202 180 203 231 203 191 201 199 193 192 200 209 211 211 214 216 220 206 182 174 184 138 138 154 163 162 166 181 205 206 191 191 186 180
156 133 137 154 107 214 240 237 190 190 212 200 211 223 202 214 215 205 195 194 204 208 207 208 209 208 201 170 144 126 142 153 155 156 167 171 164 177 189 185 190 192 184 186
165 142 131 138 177 255 287 248 178 177 238 219 208 238 213 109 65 288 225 201 201 204 205 201 199 194 177 174 163 143 148 163 164 188 222 231 207 186 185 196 202 198 191 201
83 106 121 138 161 218 244 267 231 126 263 266 204 207 175 120 158 251 226 194 193 190 180 171 165 158 167 181 160 147 172 184 211 223 230 227 216 201 204 212 210 201 198 210
70 75 135 165 199 249 263 294 106 152 240 265 215 202 185 196 216 219 170 179 179 172 166 157 153 160 178 167 154 157 179 220 246 251 246 239 226 218 218 224 213 190 191 197
164 153 177 155 183 251 291 89 156 222 269 253 219 218 203 217 238 157 159 170 165 160 163 160 153 159 162 163 158 168 209 229 216 195 232 247 243 234 210 198 211 192 183 194
190 185 184 187 208 240 245 214 246 223 249 253 223 242 203 186 198 182 176 176 170 166 169 163 154 147 173 184 169 189 221 207 184 156 235 266 275 283 209 192 201 198 191 201
268 159 147 246 267 279 285 295 309 299 279 278 253 233 192 177 178 172 174 172 165 163 159 155 149 159 201 218 206 210 205 179 170 188 231 241 215 266 288 241 219 212 214 214
242 185 163 250 283 318 310 309 316 335 351 350 349 346 206 162 170 177 174 175 171 163 162 160 163 179 207 214 218 217 192 172 178 199 218 232 222 210 231 250 250 234 229 220
215 185 177 221 225 208 261 292 317 351 354 1 20 8 7 147 173 167 166 174 164 154 145 153 165 178 204 213 220 212 189 178 175 192 220 219 226 229 213 213 314 353 297 273